Weather History for Gwinn, MI

Change the Weather History Date:

Tuesday, April 2, 2013

  Actual Average (KESC) Record (KESC)
Temperature  
Mean Temperature 20 °F -  
Max Temperature 30 °F 40 °F 53 °F (1963)
Min Temperature 10 °F 25 °F 7 °F (1954)
Degree Days  
Heating Degree Days 45    
Moisture  
Dew Point 7 °F    
Average Humidity 61    
Maximum Humidity 81    
Minimum Humidity 29    
Precipitation  
Precipitation 0.00 in - - ()
Sea Level Pressure  
Sea Level Pressure 30.09 in    
Wind  
Wind Speed 7 mph (NW)    
Max Wind Speed 16 mph    
Max Gust Speed 25 mph    
Visibility 10 miles    
Events      
Averages and records for this station are not official NWS values.
T = Trace of Precipitation, MM = Missing Value Source: NWS Daily Summary

Daily Weather History Graph

Daily Weather History Graph

Search for Another Location

Airport:

Trip Planner

Search our weather history database for the weather conditions in past years. The results will help you decide how hot, cold, wet, or windy it might be!

Date:

Astronomy

Apr. 02, 2013 Rise Set
Actual Time 7:26 AM EDT 8:20 PM EDT
Civil Twilight 6:56 AM EDT 8:50 PM EDT
Nautical Twilight 6:19 AM EDT 9:27 PM EDT
Astronomical Twilight 5:41 AM EDT 10:05 PM EDT
Moon 2:38 AM EDT (4/2) 12:03 PM EDT (4/2)
Length of Visible Light 13h 54m
Length of Day
12h 53m
Waning Gibbous, 56% of the Moon is Illuminated
Apr 2
Waning Gibbous
Apr 3
Last Quarter
Apr 10
New
Apr 18
First Quarter
Apr 25
Full

Hourly Weather History & Observations

Time (EDT) Temp. Windchill Dew Point Humidity Pressure Visibility Wind Dir Wind Speed Gust Speed Precip Events Conditions
12:16 AM 16.5 °F 6.9 °F 7.5 °F 68% 30.01 in 10.0 mi West 6.9 mph - N/A   Clear
12:37 AM 16.3 °F 9.2 °F 8.1 °F 70% 30.01 in 10.0 mi West 4.6 mph - N/A   Clear
12:57 AM 15.3 °F 7.9 °F 7.7 °F 72% 30.01 in 10.0 mi West 4.6 mph - N/A   Clear
1:16 AM 15.8 °F 7.2 °F 8.1 °F 72% 30.01 in 10.0 mi WNW 5.8 mph - N/A   Clear
1:37 AM 15.6 °F 4.9 °F 7.7 °F 71% 30.01 in 10.0 mi WNW 8.1 mph - N/A   Clear
1:57 AM 15.3 °F 5.4 °F 7.7 °F 72% 30.02 in 10.0 mi WNW 6.9 mph - N/A   Clear
2:16 AM 14.9 °F 4.0 °F 7.7 °F 73% 30.02 in 10.0 mi WNW 8.1 mph - N/A   Clear
2:37 AM 14.9 °F 5.0 °F 7.7 °F 73% 30.02 in 10.0 mi WNW 6.9 mph - N/A   Clear
2:56 AM 15.1 °F 4.2 °F 7.7 °F 73% 30.02 in 10.0 mi West 8.1 mph - N/A   Clear
3:17 AM 14.9 °F 5.0 °F 7.7 °F 73% 30.02 in 10.0 mi West 6.9 mph - N/A   Clear
3:37 AM 14.5 °F 5.7 °F 7.3 °F 73% 30.02 in 10.0 mi NNW 5.8 mph - N/A   Clear
3:56 AM 12.0 °F 4.1 °F 6.6 °F 79% 30.02 in 10.0 mi NW 4.6 mph - N/A   Scattered Clouds
4:17 AM 12.9 °F 2.6 °F 7.0 °F 77% 30.02 in 10.0 mi WNW 6.9 mph - N/A   Scattered Clouds
4:37 AM 12.9 °F 2.6 °F 6.8 °F 77% 30.02 in 10.0 mi NW 6.9 mph - N/A   Clear
4:56 AM 12.2 °F 2.9 °F 6.3 °F 77% 30.02 in 10.0 mi West 5.8 mph - N/A   Clear
5:17 AM 10.2 °F 0.6 °F 5.4 °F 81% 30.03 in 10.0 mi West 5.8 mph - N/A   Scattered Clouds
5:37 AM 12.4 °F 3.1 °F 6.6 °F 78% 30.04 in 10.0 mi West 5.8 mph - N/A   Scattered Clouds
5:56 AM 11.7 °F 3.7 °F 5.7 °F 77% 30.04 in 10.0 mi West 4.6 mph - N/A   Clear
6:55 AM 12.2 °F 2.9 °F 5.0 °F 73% 30.05 in 10.0 mi WNW 5.8 mph - N/A   Clear
7:50 AM 10.4 °F 0.8 °F 5.0 °F 79% 30.07 in 10.0 mi WNW 5.8 mph - N/A   Clear
8:55 AM 17.6 °F 8.2 °F 8.6 °F 68% 30.09 in 10.0 mi WNW 6.9 mph - N/A   Clear
9:50 AM 23.0 °F 11.1 °F 10.4 °F 59% 30.10 in 10.0 mi NNW 12.7 mph 18.4 mph N/A   Clear
10:50 AM 24.8 °F 12.9 °F 10.4 °F 54% 30.10 in 10.0 mi NNW 13.8 mph 20.7 mph N/A   Clear
11:50 AM 24.8 °F 12.4 °F 8.6 °F 50% 30.11 in 10.0 mi NNW 15.0 mph 23.0 mph N/A   Mostly Cloudy
12:48 PM 26.6 °F 15.7 °F 6.8 °F 43% 30.12 in 10.0 mi NW 12.7 mph 25.3 mph N/A   Mostly Cloudy
1:50 PM 28.4 °F 16.6 °F 6.8 °F 40% 30.11 in 10.0 mi NW 16.1 mph 23.0 mph N/A   Scattered Clouds
2:55 PM 28.4 °F 16.6 °F 6.8 °F 40% 30.12 in 10.0 mi NNW 16.1 mph 24.2 mph N/A   Scattered Clouds
4:50 PM 30.2 °F 20.8 °F 5.0 °F 34% 30.13 in 10.0 mi NNW 11.5 mph 20.7 mph N/A   Clear
5:50 PM 30.2 °F 20.2 °F 5.0 °F 34% 30.15 in 10.0 mi NNW 12.7 mph 20.7 mph N/A   Clear
6:50 PM 28.4 °F 17.0 °F 5.0 °F 37% 30.17 in 10.0 mi NNW 15.0 mph 24.2 mph N/A   Clear
7:50 PM 26.6 °F 15.2 °F -2.2 °F 29% 30.19 in 10.0 mi NNW 13.8 mph 23.0 mph N/A   Clear
8:50 PM 24.8 °F 16.1 °F 5.0 °F 43% 30.19 in 10.0 mi NNW 8.1 mph - N/A   Clear
9:50 PM 23.0 °F 18.4 °F 6.8 °F 50% 30.21 in 10.0 mi NNW 3.5 mph - N/A   Clear
10:17 PM 22.8 °F 18.2 °F 6.4 °F 50% 30.22 in 10.0 mi NW 3.5 mph - N/A   Clear
10:37 PM 22.5 °F 16.3 °F 6.8 °F 51% 30.21 in 10.0 mi NW 4.6 mph - N/A   Clear
10:56 PM 21.7 °F 15.5 °F 7.5 °F 54% 30.22 in 10.0 mi NW 4.6 mph - N/A   Clear
11:17 PM 21.2 °F 14.9 °F 7.7 °F 56% 30.22 in 10.0 mi NW 4.6 mph - N/A   Clear
11:36 PM 20.8 °F 13.2 °F 8.1 °F 58% 30.22 in 10.0 mi NW 5.8 mph - N/A   Clear
11:57 PM 20.7 °F 11.9 °F 8.4 °F 59% 30.22 in 10.0 mi NW 6.9 mph - N/A   Clear